Showing default

IRIDIUM 106, 41917

Orbit data source: Space-Track

IRIDIUM 106, 41917 is a payload satellite owned by Iridium (US) in LEO that was launched on Sat, 14 Jan 2017 UTC via an FALCON 9 launch vehicle from the Air Force Western Test Range (AFWTR). Payload-class satellites include a variety of spacecraft equipped with specific instruments for various scientific and technological missions. These include communications satellites like Starlink; space stations such as the ISS; scientific satellites like the Hubble; Earth observation satellites from companies like Planet Labs, Umbra, and HawkEye 360; GPS; miniature CubeSats for education and research; and military/defense satellites.

Loading next visibility...
Identifier
41917, 2017-003A
Orbit
LEO
Country
Flag of USUS
Related business
Manufacturer
OATK SSG Gilbert
Mission
Operational Commercial Communications
Bus & Motor
ELITEBUS, Unknown motor
Mass
860 kg wet, 700 kg dry
Launch date (UTC)
2017-01-14 (9 years ago)
Launch vehicle
FALCON 9
Launch site
Air Force Western Test Range (AFWTR)
Object type
Payload
Rocket body
Debris
Shape & HBR
Trap Box + 2 Pan, 4.8 m
Radar Cross Section
10.154 m², Large (>1 m²)

Expand to show TLE details & history
Last TLE update: 4 hours ago

TLE from 4 hours ago
0 IRIDIUM 106
1 41917U 17003A   26035.53530316  .00000092  00000-0  25637-4 0  9993
2 41917  86.4026 144.0014 0001847  88.5188 271.6219 14.34218194474192
Epoch: 2026-02-04T12:50Z
TLE epoch observation values (Epoch: 2026-02-04T12:50:50.193Z)
Latitude
-0.00003°
Longitude
176.59177°
Altitude
780.68 km
Speed
7.464 km/s
True Right ascension
09h 36m 00s
True Declination
0° 00' 00"
Sunlit
Object was in full shadow at epoch
Visualization orbit readout
Latitude
Unknown
Longitude
Unknown
Altitude
Unknown
Speed
Unknown
Apparent Right ascension
Unknown
Apparent Declination
Unknown
Sunlit
N/A
Visualization observer readout
Local Sidereal Time
19:05:28
Azimuth
Unknown
Elevation
Unknown
Doppler factor
Unknown
Orbital elements
Apogee altitude
775.951 km
Perigee altitude
773.309 km
Semi-major axis
7,152.767 km
Eccentricity
0.00018
Inclination
86.4026°
RAAN
144.0014°
Arg. of periapsis
88.5188°
True anomaly
271.60074°
Mean anomaly
271.6219°
Eccentric anomaly
271.61132°
Mean motion
3.58783 °/min
Orbital period
100.34 mins
BSTAR
0.000025637
Loading maneuver chart data...
Computing Atmospheric mass density...
Loading historical data...
Loading historical data...
Loading historical data...
Loading historical data...
Loading historical data...
Loading historical data...
Loading historical data...

Documentation

Showing up to 5 results
|